,,Stat6,,Stat2,,Stat8,,Stat9,,Stat10,,Wind1,,Wind1,
time,status,PA1M_AVG,status,PR1M_SUM,status,RH1M_AVG,status,SR1M_AVG,status,TA1M_AVG,status,W1dAve1m,status,W1sAve1m,
2004-03-10, 00:00:00,VALID,918.36,VALID,0,VALID,90.9617,VALID,0.0339617,VALID,20.6343,VALID,128,VALID,1.45979,
2004-03-10, 00:01:00,VALID,918.374,VALID,0,VALID,90.9846,VALID,0.0169808,VALID,20.6246,VALID,132,VALID,1.51879,
2004-03-10, 00:02:00,VALID,918.384,VALID,0,VALID,91.0151,VALID,0.0509425,VALID,20.6082,VALID,105,VALID,1.6542,
2004-03-10, 00:03:00,VALID,918.388,VALID,0,VALID,91.1855,VALID,0.0849042,VALID,20.6082,VALID,123,VALID,1.26772,
2004-03-10, 00:04:00,VALID,918.398,VALID,0,VALID,91.1448,VALID,0.101885,VALID,20.5888,VALID,124,VALID,1.45722,
2004-03-10, 00:05:00,VALID,918.392,VALID,0,VALID,91.0113,VALID,0.0509425,VALID,20.5858,VALID,127,VALID,1.54379,
2004-03-10, 00:06:00,VALID,918.406,VALID,0,VALID,90.9146,VALID,0.0169808,VALID,20.6017,VALID,116,VALID,1.98996,
2004-03-10, 00:07:00,VALID,918.423,VALID,0,VALID,90.8218,VALID,0.0169808,VALID,20.6184,VALID,116,VALID,1.90663,
2004-03-10, 00:08:00,VALID,918.417,VALID,0,VALID,90.8994,VALID,0.0169808,VALID,20.6214,VALID,111,VALID,1.02695,
2004-03-10, 00:09:00,VALID,918.395,VALID,0,VALID,90.8256,VALID,0.0339617,VALID,20.6211,VALID,115,VALID,2.49077,
2004-03-10, 00:10:00,VALID,918.395,VALID,0,VALID,91.0545,VALID,0.0169808,VALID,20.6179,VALID,111,VALID,1.57031,
2004-03-10, 00:11:00,VALID,918.39,VALID,0,VALID,91.0838,VALID,0.0679233,VALID,20.6117,VALID,108,VALID,1.55868,
2004-03-10, 00:12:00,VALID,918.391,VALID,0,VALID,91.1028,VALID,0.0169808,VALID,20.599,VALID,95,VALID,1.15516,
2004-03-10, 00:13:00,VALID,918.375,VALID,0,VALID,91.3864,VALID,0.0169808,VALID,20.5893,VALID,87,VALID,0.771391,
2004-03-10, 00:14:00,VALID,918.361,VALID,0,VALID,91.4767,VALID,0.0169808,VALID,20.5866,VALID,67,VALID,0.84266,
2004-03-10, 00:15:00,VALID,918.347,VALID,0,VALID,91.3813,VALID,0.0169808,VALID,20.5769,VALID,71,VALID,0.962798,
2004-03-10, 00:16:00,VALID,918.336,VALID,0,VALID,91.4525,VALID,0,VALID,20.5667,VALID,83,VALID,0.581745,
2004-03-10, 00:17:00,VALID,918.337,VALID,0,VALID,91.4958,VALID,0.0339617,VALID,20.557,VALID,89,VALID,0.749273,
2004-03-10, 00:18:00,VALID,918.325,VALID,0,VALID,91.7768,VALID,0.0169808,VALID,20.5409,VALID,58,VALID,1.25577,
2004-03-10, 00:19:00,VALID,918.312,VALID,0,VALID,91.5339,VALID,0.0169808,VALID,20.5255,VALID,63,VALID,2.02433,
2004-03-10, 00:20:00,VALID,918.289,VALID,0,VALID,91.4843,VALID,0.0679233,VALID,20.5108,VALID,80,VALID,1.46076,
2004-03-10, 00:21:00,VALID,918.286,VALID,0,VALID,91.6293,VALID,0.0509425,VALID,20.5312,VALID,82,VALID,1.38743,
2004-03-10, 00:22:00,VALID,918.279,VALID,0,VALID,91.5848,VALID,0.0509425,VALID,20.515,VALID,90,VALID,1.74855,
2004-03-10, 00:23:00,VALID,918.269,VALID,0,VALID,91.6712,VALID,0.0339617,VALID,20.5016,VALID,112,VALID,1.34952,
2004-03-10, 00:24:00,VALID,918.227,VALID,0,VALID,91.6878,VALID,0.0509425,VALID,20.5051,VALID,109,VALID,1.19289,
2004-03-10, 00:25:00,VALID,918.219,VALID,0,VALID,91.5593,VALID,0.0339617,VALID,20.5086,VALID,116,VALID,1.46418,
2004-03-10, 00:26:00,VALID,918.203,VALID,0,VALID,91.4741,VALID,0.0509425,VALID,20.5153,VALID,107,VALID,1.61052,
2004-03-10, 00:27:00,VALID,918.198,VALID,0,VALID,91.3292,VALID,0.0849042,VALID,20.5177,VALID,102,VALID,1.54167,
2004-03-10, 00:28:00,VALID,918.178,VALID,0,VALID,91.0215,VALID,0.0339617,VALID,20.5473,VALID,100,VALID,1.69316,
2004-03-10, 00:29:00,VALID,918.179,VALID,0,VALID,90.9846,VALID,0.0509425,VALID,20.5732,VALID,126,VALID,1.62188,
2004-03-10, 00:30:00,VALID,918.171,VALID,0,VALID,91.0075,VALID,0.0849042,VALID,20.5923,VALID,98,VALID,1.02717,
2004-03-10, 00:31:00,VALID,918.157,VALID,0,VALID,91.1969,VALID,0.0509425,VALID,20.5958,VALID,100,VALID,1.54342,
2004-03-10, 00:32:00,VALID,918.156,VALID,0,VALID,91.2084,VALID,0.101885,VALID,20.5662,VALID,112,VALID,2.27126,
2004-03-10, 00:33:00,VALID,918.149,VALID,0,VALID,90.8905,VALID,0.0679233,VALID,20.5632,VALID,110,VALID,1.69422,
2004-03-10, 00:34:00,VALID,918.134,VALID,0,VALID,90.9617,VALID,0.0679233,VALID,20.5858,VALID,140,VALID,1.17392,
2004-03-10, 00:35:00,VALID,918.12,VALID,0,VALID,90.9897,VALID,0.0679233,VALID,20.5925,VALID,97,VALID,0.827009,
2004-03-10, 00:36:00,VALID,918.098,VALID,0,VALID,90.8422,VALID,0.0679233,VALID,20.5888,VALID,74,VALID,2.13438,
2004-03-10, 00:37:00,VALID,918.111,VALID,0,VALID,91.0698,VALID,0.0849042,VALID,20.592,VALID,116,VALID,1.07049,
2004-03-10, 00:38:00,VALID,918.101,VALID,0,VALID,91.1664,VALID,0.0849042,VALID,20.592,VALID,135,VALID,0.970567,
2004-03-10, 00:39:00,VALID,918.094,VALID,0,VALID,91.2122,VALID,0.0339617,VALID,20.5896,VALID,112,VALID,0.861979,
2004-03-10, 00:40:00,VALID,918.095,VALID,0,VALID,91.3127,VALID,0.0679233,VALID,20.5734,VALID,86,VALID,1.18145,
2004-03-10, 00:41:00,VALID,918.096,VALID,0,VALID,91.4029,VALID,0.0509425,VALID,20.5538,VALID,130,VALID,1.05413,
2004-03-10, 00:42:00,VALID,918.083,VALID,0,VALID,91.3419,VALID,0.0509425,VALID,20.5438,VALID,125,VALID,1.2589,
2004-03-10, 00:43:00,VALID,918.066,VALID,0,VALID,91.3711,VALID,0.0679233,VALID,20.5344,VALID,125,VALID,1.3186,
2004-03-10, 00:44:00,VALID,918.062,VALID,0,VALID,91.4741,VALID,0.0509425,VALID,20.5374,VALID,129,VALID,1.22154,
2004-03-10, 00:45:00,VALID,918.039,VALID,0,VALID,91.408,VALID,0.0339617,VALID,20.525,VALID,133,VALID,1.67847,
2004-03-10, 00:46:00,VALID,918.019,VALID,0,VALID,91.3076,VALID,-0.0849042,VALID,20.5295,VALID,97,VALID,1.30469,
2004-03-10, 00:47:00,VALID,917.977,VALID,0,VALID,91.2681,VALID,-0.0509425,VALID,20.5389,VALID,114,VALID,1.0538,
2004-03-10, 00:48:00,VALID,917.974,VALID,0,VALID,91.2605,VALID,-0.0339617,VALID,20.5484,VALID,138,VALID,1.40833,
2004-03-10, 00:49:00,VALID,917.958,VALID,0,VALID,91.3991,VALID,-0.0339617,VALID,20.5419,VALID,114,VALID,0.68135,
2004-03-10, 00:50:00,VALID,917.923,VALID,0,VALID,91.1969,VALID,-0.0339617,VALID,20.5352,VALID,137,VALID,1.69474,
2004-03-10, 00:51:00,VALID,917.91,VALID,0,VALID,91.113,VALID,-0.0509425,VALID,20.5457,VALID,158,VALID,0.903711,
2004-03-10, 00:52:00,VALID,917.867,VALID,0,VALID,91.1626,VALID,-0.0679233,VALID,20.5521,VALID,148,VALID,1.20126,
2004-03-10, 00:53:00,VALID,917.843,VALID,0,VALID,91.2262,VALID,-0.0339617,VALID,20.5553,VALID,139,VALID,0.595881,
2004-03-10, 00:54:00,VALID,917.817,VALID,0,VALID,91.2147,VALID,-0.0679233,VALID,20.5325,VALID,140,VALID,0.951527,
2004-03-10, 00:55:00,VALID,917.81,VALID,0,VALID,91.3584,VALID,-0.0849042,VALID,20.5332,VALID,97,VALID,0.496701,
2004-03-10, 00:56:00,VALID,917.798,VALID,0,VALID,91.4233,VALID,-0.0509425,VALID,20.4999,VALID,134,VALID,0.824306,
2004-03-10, 00:57:00,VALID,917.784,VALID,0,VALID,91.4017,VALID,-0.0339617,VALID,20.4808,VALID,121,VALID,1.27689,
2004-03-10, 00:58:00,VALID,917.773,VALID,0,VALID,91.5784,VALID,-0.0169808,VALID,20.4547,VALID,100,VALID,0.810268,
2004-03-10, 00:59:00,VALID,917.749,VALID,0,VALID,91.7755,VALID,-0.0509425,VALID,20.4259,VALID,87,VALID,0.555575,
2004-03-10, 01:00:00,VALID,917.722,VALID,0,VALID,91.8086,VALID,-0.0339617,VALID,20.3963,VALID,125,VALID,0.850229,
2004-03-10, 01:01:00,VALID,917.709,VALID,0,VALID,91.8009,VALID,-0.0169808,VALID,20.3834,VALID,147,VALID,0.500888,
2004-03-10, 01:02:00,VALID,917.687,VALID,0,VALID,91.7628,VALID,-0.0339617,VALID,20.3874,VALID,139,VALID,1.06113,
2004-03-10, 01:03:00,VALID,917.677,VALID,0,VALID,91.8162,VALID,-0.0679233,VALID,20.3777,VALID,148,VALID,0.744665,
2004-03-10, 01:04:00,VALID,917.661,VALID,0,VALID,91.8416,VALID,-0.0339617,VALID,20.3712,VALID,138,VALID,0.579013,
2004-03-10, 01:05:00,VALID,917.66,VALID,0,VALID,91.8734,VALID,-0.0169808,VALID,20.361,VALID,144,VALID,0.902435,
2004-03-10, 01:06:00,VALID,917.648,VALID,0,VALID,91.8658,VALID,-0.0339617,VALID,20.3484,VALID,130,VALID,0.641352,
2004-03-10, 01:07:00,VALID,917.642,VALID,0,VALID,91.9574,VALID,-0.0169808,VALID,20.3387,VALID,100,VALID,0.754861,
2004-03-10, 01:08:00,VALID,917.628,VALID,0,VALID,92.012,VALID,0,VALID,20.323,VALID,118,VALID,0.662064,
2004-03-10, 01:09:00,VALID,917.619,VALID,0,VALID,91.9675,VALID,-0.0509425,VALID,20.3066,VALID,136,VALID,0.927144,
2004-03-10, 01:10:00,VALID,917.612,VALID,0,VALID,91.9815,VALID,-0.0339617,VALID,20.3066,VALID,78,VALID,0.803516,
2004-03-10, 01:11:00,VALID,917.61,VALID,0,VALID,91.9485,VALID,-0.0339617,VALID,20.2967,VALID,96,VALID,0.930537,
2004-03-10, 01:12:00,VALID,917.594,VALID,0,VALID,91.5479,VALID,-0.0849042,VALID,20.2969,VALID,104,VALID,1.27915,
2004-03-10, 01:13:00,VALID,917.574,VALID,0,VALID,91.3724,VALID,-0.0849042,VALID,20.3362,VALID,108,VALID,0.977344,
2004-03-10, 01:14:00,VALID,917.573,VALID,0,VALID,91.1804,VALID,-0.0509425,VALID,20.3553,VALID,103,VALID,0.927827,
2004-03-10, 01:15:00,VALID,917.541,VALID,0,VALID,91.0151,VALID,0,VALID,20.3745,VALID,115,VALID,1.13086,
2004-03-10, 01:16:00,VALID,917.538,VALID,0,VALID,90.9223,VALID,0.0339617,VALID,20.3931,VALID,90,VALID,0.931021,
2004-03-10, 01:17:00,VALID,917.533,VALID,0,VALID,90.8625,VALID,0.0849042,VALID,20.392,VALID,110,VALID,0.78016,
2004-03-10, 01:18:00,VALID,917.507,VALID,0,VALID,90.6095,VALID,0.0849042,VALID,20.398,VALID,119,VALID,1.21949,
2004-03-10, 01:19:00,VALID,917.499,VALID,0,VALID,90.6095,VALID,0.0849042,VALID,20.4343,VALID,117,VALID,0.606585,
2004-03-10, 01:20:00,VALID,917.486,VALID,0,VALID,90.6679,VALID,0.101885,VALID,20.4343,VALID,113,VALID,0.524926,
2004-03-10, 01:21:00,VALID,917.484,VALID,0,VALID,90.7671,VALID,0.0849042,VALID,20.4281,VALID,119,VALID,0.548473,
2004-03-10, 01:22:00,VALID,917.476,VALID,0,VALID,90.9108,VALID,0.0849042,VALID,20.4087,VALID,136,VALID,0.47237,
2004-03-10, 01:23:00,VALID,917.466,VALID,0,VALID,91.066,VALID,0.0679233,VALID,20.3734,VALID,175,VALID,0.738917,
2004-03-10, 01:24:00,VALID,917.454,VALID,0,VALID,91.3673,VALID,0.0339617,VALID,20.3379,VALID,178,VALID,0.561012,
2004-03-10, 01:25:00,VALID,917.443,VALID,0,VALID,91.6585,VALID,0.0849042,VALID,20.3021,VALID,156,VALID,0.972098,
2004-03-10, 01:26:00,VALID,917.426,VALID,0,VALID,91.9408,VALID,0.0679233,VALID,20.2634,VALID,158,VALID,1.0383,
2004-03-10, 01:27:00,VALID,917.421,VALID,0,VALID,92.2269,VALID,0.0849042,VALID,20.2216,VALID,152,VALID,1.01543,
2004-03-10, 01:28:00,VALID,917.412,VALID,0,VALID,92.4584,VALID,0.101885,VALID,20.1628,VALID,150,VALID,1.16566,
2004-03-10, 01:29:00,VALID,917.391,VALID,0,VALID,92.6453,VALID,0.101885,VALID,20.1275,VALID,152,VALID,0.658203,
2004-03-10, 01:30:00,VALID,917.371,VALID,0,VALID,92.8373,VALID,0.0679233,VALID,20.1094,VALID,158,VALID,0.852134,
2004-03-10, 01:31:00,VALID,917.349,VALID,0,VALID,92.9937,VALID,-0.0339617,VALID,20.0574,VALID,152,VALID,0.662946,
2004-03-10, 01:32:00,VALID,917.343,VALID,0,VALID,93.1463,VALID,0.0169808,VALID,20.0418,VALID,144,VALID,0.667225,
2004-03-10, 01:33:00,VALID,917.312,VALID,0,VALID,93.3421,VALID,-0.0169808,VALID,20.0065,VALID,158,VALID,0.749047,
2004-03-10, 01:34:00,VALID,917.297,VALID,0,VALID,93.5049,VALID,0,VALID,19.9678,VALID,144,VALID,1.0743,
2004-03-10, 01:35:00,VALID,917.275,VALID,0,VALID,93.6244,VALID,-0.0169808,VALID,19.929,VALID,121,VALID,0.955915,
2004-03-10, 01:36:00,VALID,917.261,VALID,0,VALID,93.7847,VALID,-0.0169808,VALID,19.9032,VALID,134,VALID,0.901786,
2004-03-10, 01:37:00,VALID,917.232,VALID,0,VALID,93.8699,VALID,0,VALID,19.8642,VALID,148,VALID,1.57708,
2004-03-10, 01:38:00,VALID,917.207,VALID,0,VALID,93.8635,VALID,0,VALID,19.8644,VALID,140,VALID,1.05729,
2004-03-10, 01:39:00,VALID,917.204,VALID,0,VALID,93.8533,VALID,-0.0169808,VALID,19.8607,VALID,131,VALID,0.744368,
2004-03-10, 01:40:00,VALID,917.184,VALID,0,VALID,93.7897,VALID,0,VALID,19.8714,VALID,157,VALID,1.2681,
2004-03-10, 01:41:00,VALID,917.191,VALID,0,VALID,93.7173,VALID,-0.0169808,VALID,19.8875,VALID,132,VALID,1.14004,
2004-03-10, 01:42:00,VALID,917.186,VALID,0,VALID,93.6893,VALID,-0.0339617,VALID,19.8771,VALID,137,VALID,1.46317,
2004-03-10, 01:43:00,VALID,917.18,VALID,0,VALID,93.7173,VALID,-0.0169808,VALID,19.8878,VALID,140,VALID,1.33918,
2004-03-10, 01:44:00,VALID,917.184,VALID,0,VALID,93.8012,VALID,-0.0339617,VALID,19.861,VALID,131,VALID,1.34318,
2004-03-10, 01:45:00,VALID,917.176,VALID,0,VALID,93.8368,VALID,-0.0339617,VALID,19.8612,VALID,128,VALID,1.53616,
2004-03-10, 01:46:00,VALID,917.17,VALID,0,VALID,93.8228,VALID,-0.0339617,VALID,19.8587,VALID,126,VALID,1.63356,
2004-03-10, 01:47:00,VALID,917.169,VALID,0,VALID,93.8139,VALID,-0.0169808,VALID,19.8483,VALID,126,VALID,1.39878,
2004-03-10, 01:48:00,VALID,917.16,VALID,0,VALID,93.8622,VALID,0,VALID,19.8582,VALID,104,VALID,1.09913,
2004-03-10, 01:49:00,VALID,917.164,VALID,0,VALID,94.025,VALID,0,VALID,19.8294,VALID,114,VALID,1.31492,
2004-03-10, 01:50:00,VALID,917.151,VALID,0,VALID,94.0682,VALID,-0.0169808,VALID,19.8165,VALID,115,VALID,1.59337,
2004-03-10, 01:51:00,VALID,917.141,VALID,0,VALID,94.0708,VALID,-0.0169808,VALID,19.81,VALID,116,VALID,0.675426,
2004-03-10, 01:52:00,VALID,917.148,VALID,0,VALID,94.114,VALID,-0.0169808,VALID,19.7874,VALID,116,VALID,1.18999,
2004-03-10, 01:53:00,VALID,917.133,VALID,0,VALID,94.1585,VALID,0,VALID,19.7745,VALID,120,VALID,1.46203,
2004-03-10, 01:54:00,VALID,917.129,VALID,0,VALID,94.1623,VALID,-0.0679233,VALID,19.7718,VALID,120,VALID,1.3988,
2004-03-10, 01:55:00,VALID,917.11,VALID,0,VALID,94.1661,VALID,-0.0679233,VALID,19.7621,VALID,131,VALID,1.26154,
2004-03-10, 01:56:00,VALID,917.101,VALID,0,VALID,94.1458,VALID,-0.0849042,VALID,19.7554,VALID,105,VALID,1.12282,
2004-03-10, 01:57:00,VALID,917.08,VALID,0,VALID,94.1712,VALID,-0.0169808,VALID,19.7422,VALID,113,VALID,1.13352,
2004-03-10, 01:58:00,VALID,917.07,VALID,0,VALID,94.1928,VALID,-0.0169808,VALID,19.7392,VALID,108,VALID,0.979611,
2004-03-10, 01:59:00,VALID,917.064,VALID,0,VALID,94.2691,VALID,-0.0339617,VALID,19.7395,VALID,104,VALID,0.966087,
2004-03-10, 02:00:00,VALID,917.056,VALID,0,VALID,94.4166,VALID,-0.0509425,VALID,19.7104,VALID,105,VALID,0.856707,
2004-03-10, 02:01:00,VALID,917.038,VALID,0,VALID,94.5222,VALID,-0.0169808,VALID,19.6876,VALID,89,VALID,0.868712,
2004-03-10, 02:02:00,VALID,917.019,VALID,0,VALID,94.5438,VALID,-0.0169808,VALID,19.6878,VALID,112,VALID,0.880859,
2004-03-10, 02:03:00,VALID,916.996,VALID,0,VALID,94.4637,VALID,-0.0509425,VALID,19.6714,VALID,124,VALID,1.37872,
2004-03-10, 02:04:00,VALID,916.992,VALID,0,VALID,94.3772,VALID,-0.0169808,VALID,19.6814,VALID,130,VALID,1.20351,
2004-03-10, 02:05:00,VALID,916.966,VALID,0,VALID,94.2462,VALID,-0.0509425,VALID,19.6943,VALID,122,VALID,1.30273,
2004-03-10, 02:06:00,VALID,916.948,VALID,0,VALID,93.8444,VALID,-0.0339617,VALID,19.6938,VALID,128,VALID,1.59673,
2004-03-10, 02:07:00,VALID,916.926,VALID,0,VALID,93.3981,VALID,-0.0679233,VALID,19.7492,VALID,133,VALID,1.85844,
2004-03-10, 02:08:00,VALID,916.902,VALID,0,VALID,92.9378,VALID,0,VALID,19.7971,VALID,121,VALID,1.17988,
2004-03-10, 02:09:00,VALID,916.901,VALID,0,VALID,92.7343,VALID,-0.0169808,VALID,19.8326,VALID,113,VALID,1.3434,
2004-03-10, 02:10:00,VALID,916.864,VALID,0,VALID,92.2969,VALID,0,VALID,19.8587,VALID,123,VALID,2.10387,
2004-03-10, 02:11:00,VALID,916.864,VALID,0,VALID,91.8455,VALID,0.0169808,VALID,19.9231,VALID,114,VALID,1.57969,
2004-03-10, 02:12:00,VALID,916.859,VALID,0,VALID,91.6712,VALID,0,VALID,19.9884,VALID,140,VALID,1.6858,
2004-03-10, 02:13:00,VALID,916.844,VALID,0,VALID,91.6127,VALID,-0.0169808,VALID,19.9939,VALID,123,VALID,1.09133,
2004-03-10, 02:14:00,VALID,916.836,VALID,0,VALID,91.6204,VALID,-0.0509425,VALID,19.9909,VALID,112,VALID,1.41481,
2004-03-10, 02:15:00,VALID,916.82,VALID,0,VALID,91.5123,VALID,-0.0169808,VALID,19.9949,VALID,118,VALID,1.40225,
2004-03-10, 02:16:00,VALID,916.823,VALID,0,VALID,91.2542,VALID,-0.0849042,VALID,19.9914,VALID,124,VALID,1.21875,
2004-03-10, 02:17:00,VALID,916.813,VALID,0,VALID,90.9706,VALID,-0.101885,VALID,20.0041,VALID,132,VALID,1.51257,
2004-03-10, 02:18:00,VALID,916.814,VALID,0,VALID,90.8396,VALID,-0.0679233,VALID,20.0369,VALID,118,VALID,1.23526,
2004-03-10, 02:19:00,VALID,916.819,VALID,0,VALID,90.7481,VALID,-0.0849042,VALID,20.0624,VALID,113,VALID,1.02028,
2004-03-10, 02:20:00,VALID,916.822,VALID,0,VALID,90.7582,VALID,-0.0679233,VALID,20.0786,VALID,116,VALID,0.800409,
2004-03-10, 02:21:00,VALID,916.816,VALID,0,VALID,90.879,VALID,-0.101885,VALID,20.0724,VALID,121,VALID,0.922763,
2004-03-10, 02:22:00,VALID,916.814,VALID,0,VALID,90.8104,VALID,-0.0849042,VALID,20.0391,VALID,139,VALID,1.73477,
2004-03-10, 02:23:00,VALID,916.806,VALID,0,VALID,90.462,VALID,-0.0679233,VALID,20.056,VALID,112,VALID,1.46348,
2004-03-10, 02:24:00,VALID,916.809,VALID,0,VALID,90.3907,VALID,-0.101885,VALID,20.0694,VALID,111,VALID,1.08487,
2004-03-10, 02:25:00,VALID,916.789,VALID,0,VALID,89.9711,VALID,-0.0679233,VALID,20.0783,VALID,82,VALID,1.53977,
2004-03-10, 02:26:00,VALID,916.786,VALID,0,VALID,89.4625,VALID,-0.101885,VALID,20.1397,VALID,90,VALID,1.19786,
2004-03-10, 02:27:00,VALID,916.771,VALID,0,VALID,89.4192,VALID,-0.0849042,VALID,20.1978,VALID,86,VALID,1.18714,
2004-03-10, 02:28:00,VALID,916.76,VALID,0,VALID,89.2539,VALID,-0.0849042,VALID,20.2078,VALID,137,VALID,1.9112,
2004-03-10, 02:29:00,VALID,916.738,VALID,0,VALID,88.9818,VALID,-0.101885,VALID,20.2205,VALID,115,VALID,1.88167,
2004-03-10, 02:30:00,VALID,916.739,VALID,0,VALID,88.9042,VALID,-0.101885,VALID,20.253,VALID,88,VALID,1.13002,
2004-03-10, 02:31:00,VALID,916.732,VALID,0,VALID,88.8114,VALID,-0.118866,VALID,20.2597,VALID,109,VALID,1.1694,
2004-03-10, 02:32:00,VALID,916.726,VALID,0,VALID,88.7656,VALID,-0.0849042,VALID,20.2401,VALID,107,VALID,1.11979,
2004-03-10, 02:33:00,VALID,916.734,VALID,0,VALID,88.8279,VALID,-0.0849042,VALID,20.2431,VALID,80,VALID,0.837391,
2004-03-10, 02:34:00,VALID,916.742,VALID,0,VALID,88.9068,VALID,-0.0849042,VALID,20.2274,VALID,78,VALID,1.12344,
2004-03-10, 02:35:00,VALID,916.747,VALID,0,VALID,89.0543,VALID,-0.0849042,VALID,20.2145,VALID,133,VALID,1.14435,
2004-03-10, 02:36:00,VALID,916.743,VALID,0,VALID,89.1853,VALID,-0.101885,VALID,20.169,VALID,123,VALID,1.08931,
2004-03-10, 02:37:00,VALID,916.749,VALID,0,VALID,89.2132,VALID,-0.0849042,VALID,20.169,VALID,122,VALID,0.729288,
2004-03-10, 02:38:00,VALID,916.735,VALID,0,VALID,89.4498,VALID,-0.101885,VALID,20.1531,VALID,93,VALID,0.469322,
2004-03-10, 02:39:00,VALID,916.743,VALID,0,VALID,89.6036,VALID,-0.0679233,VALID,20.1082,VALID,99,VALID,0.669513,
2004-03-10, 02:40:00,VALID,916.741,VALID,0,VALID,89.6303,VALID,-0.101885,VALID,20.0721,VALID,137,VALID,1.0599,
2004-03-10, 02:41:00,VALID,916.741,VALID,0,VALID,89.6494,VALID,-0.101885,VALID,20.0592,VALID,135,VALID,1.07336,
2004-03-10, 02:42:00,VALID,916.748,VALID,0,VALID,89.8122,VALID,-0.101885,VALID,20.056,VALID,132,VALID,1.35629,
2004-03-10, 02:43:00,VALID,916.728,VALID,0,VALID,89.8592,VALID,-0.101885,VALID,20.0463,VALID,133,VALID,1.14806,
2004-03-10, 02:44:00,VALID,916.706,VALID,0,VALID,89.8465,VALID,-0.0849042,VALID,20.0431,VALID,115,VALID,0.740885,
2004-03-10, 02:45:00,VALID,916.679,VALID,0,VALID,89.9101,VALID,-0.0339617,VALID,20.0296,VALID,78,VALID,0.960938,
2004-03-10, 02:46:00,VALID,916.678,VALID,0,VALID,90.1123,VALID,0.0339617,VALID,19.9896,VALID,64,VALID,0.735777,
2004-03-10, 02:47:00,VALID,916.671,VALID,0,VALID,90.0042,VALID,0.0169808,VALID,19.9673,VALID,108,VALID,1.67318,
2004-03-10, 02:48:00,VALID,916.643,VALID,0,VALID,90.1135,VALID,0.0339617,VALID,19.9829,VALID,116,VALID,0.989139,
2004-03-10, 02:49:00,VALID,916.634,VALID,0,VALID,90.2343,VALID,0.0169808,VALID,19.9673,VALID,128,VALID,1.0565,
2004-03-10, 02:50:00,VALID,916.644,VALID,0,VALID,90.2865,VALID,0.0339617,VALID,19.9449,VALID,110,VALID,1.24277,
2004-03-10, 02:51:00,VALID,916.638,VALID,0,VALID,89.8707,VALID,0.0679233,VALID,19.9221,VALID,120,VALID,1.68803,
2004-03-10, 02:52:00,VALID,916.636,VALID,0,VALID,89.067,VALID,0,VALID,19.9998,VALID,126,VALID,1.70675,
2004-03-10, 02:53:00,VALID,916.617,VALID,0,VALID,88.7542,VALID,0.0169808,VALID,20.1034,VALID,140,VALID,1.5067,
2004-03-10, 02:54:00,VALID,916.608,VALID,0,VALID,88.6792,VALID,0.0169808,VALID,20.1481,VALID,139,VALID,1.10724,
2004-03-10, 02:55:00,VALID,916.581,VALID,0,VALID,88.7974,VALID,0.0169808,VALID,20.1384,VALID,141,VALID,1.04897,
2004-03-10, 02:56:00,VALID,916.57,VALID,0,VALID,88.7529,VALID,0.0169808,VALID,20.1454,VALID,160,VALID,1.39238,
2004-03-10, 02:57:00,VALID,916.561,VALID,0,VALID,88.6321,VALID,0,VALID,20.1578,VALID,124,VALID,1.13733,
2004-03-10, 02:58:00,VALID,916.552,VALID,0,VALID,88.8788,VALID,0,VALID,20.1548,VALID,149,VALID,1.131,
2004-03-10, 02:59:00,VALID,916.548,VALID,0,VALID,89.1827,VALID,0,VALID,20.1123,VALID,166,VALID,0.81686,
2004-03-10, 03:00:00,VALID,916.527,VALID,0,VALID,88.9678,VALID,-0.0339617,VALID,20.0908,VALID,125,VALID,1.57374,
2004-03-10, 03:01:00,VALID,916.521,VALID,0,VALID,89.1115,VALID,-0.101885,VALID,20.1044,VALID,136,VALID,1.1337,
2004-03-10, 03:02:00,VALID,916.516,VALID,0,VALID,89.2056,VALID,-0.101885,VALID,20.1114,VALID,145,VALID,1.11389,
2004-03-10, 03:03:00,VALID,916.505,VALID,0,VALID,89.3849,VALID,-0.0849042,VALID,20.092,VALID,164,VALID,0.443496,
2004-03-10, 03:04:00,VALID,916.519,VALID,0,VALID,89.6481,VALID,-0.101885,VALID,20.0597,VALID,157,VALID,0.751172,
2004-03-10, 03:05:00,VALID,916.503,VALID,0,VALID,89.8312,VALID,-0.101885,VALID,20.021,VALID,131,VALID,1.04062,
2004-03-10, 03:06:00,VALID,916.498,VALID,0,VALID,90.3907,VALID,-0.101885,VALID,19.9728,VALID,159,VALID,1.0744,
2004-03-10, 03:07:00,VALID,916.513,VALID,0,VALID,90.7862,VALID,-0.0849042,VALID,19.9106,VALID,146,VALID,1.17132,
2004-03-10, 03:08:00,VALID,916.516,VALID,0,VALID,90.9884,VALID,-0.0849042,VALID,19.8756,VALID,120,VALID,1.08594,
2004-03-10, 03:09:00,VALID,916.504,VALID,0,VALID,91.23,VALID,-0.0339617,VALID,19.817,VALID,138,VALID,1.05629,
2004-03-10, 03:10:00,VALID,916.506,VALID,0,VALID,91.3368,VALID,-0.0849042,VALID,19.772,VALID,101,VALID,0.469477,
2004-03-10, 03:11:00,VALID,916.497,VALID,0,VALID,91.642,VALID,-0.101885,VALID,19.7273,VALID,98,VALID,0.63891,
2004-03-10, 03:12:00,VALID,916.496,VALID,0,VALID,92.0235,VALID,-0.101885,VALID,19.6687,VALID,129,VALID,0.986737,
2004-03-10, 03:13:00,VALID,916.468,VALID,0,VALID,92.3223,VALID,-0.0679233,VALID,19.6043,VALID,136,VALID,0.524414,
2004-03-10, 03:14:00,VALID,916.457,VALID,0,VALID,92.5576,VALID,-0.101885,VALID,19.5494,VALID,126,VALID,0.543255,
2004-03-10, 03:15:00,VALID,916.464,VALID,0,VALID,92.6733,VALID,-0.0509425,VALID,19.5231,VALID,141,VALID,0.906445,
2004-03-10, 03:16:00,VALID,916.462,VALID,0,VALID,92.9187,VALID,0.0509425,VALID,19.4866,VALID,136,VALID,1.09877,
2004-03-10, 03:17:00,VALID,916.456,VALID,0,VALID,93.1552,VALID,0,VALID,19.4484,VALID,150,VALID,0.816939,
2004-03-10, 03:18:00,VALID,916.442,VALID,0,VALID,93.4324,VALID,0,VALID,19.4128,VALID,150,VALID,1.03646,
2004-03-10, 03:19:00,VALID,916.415,VALID,0,VALID,93.8215,VALID,0.0339617,VALID,19.3634,VALID,144,VALID,1.03544,
2004-03-10, 03:20:00,VALID,916.412,VALID,0,VALID,94.0237,VALID,0.0339617,VALID,19.3309,VALID,143,VALID,0.947088,
2004-03-10, 03:21:00,VALID,916.402,VALID,0,VALID,94.245,VALID,0.0339617,VALID,19.3088,VALID,133,VALID,1.21289,
2004-03-10, 03:22:00,VALID,916.393,VALID,0,VALID,94.47,VALID,0.0339617,VALID,19.2859,VALID,142,VALID,1.05741,
2004-03-10, 03:23:00,VALID,916.373,VALID,0,VALID,94.5616,VALID,0.0169808,VALID,19.2834,VALID,161,VALID,0.945313,
2004-03-10, 03:24:00,VALID,916.352,VALID,0,VALID,94.6938,VALID,0.0339617,VALID,19.2666,VALID,143,VALID,1.15701,
2004-03-10, 03:25:00,VALID,916.332,VALID,0,VALID,94.7409,VALID,0,VALID,19.2673,VALID,153,VALID,1.26235,
2004-03-10, 03:26:00,VALID,916.316,VALID,0,VALID,94.7536,VALID,0.0169808,VALID,19.2474,VALID,153,VALID,0.955487,
2004-03-10, 03:27:00,VALID,916.303,VALID,0,VALID,94.8681,VALID,0.0339617,VALID,19.2352,VALID,151,VALID,1.19103,
2004-03-10, 03:28:00,VALID,916.3,VALID,0,VALID,94.8909,VALID,0.0339617,VALID,19.2184,VALID,152,VALID,0.982244,
2004-03-10, 03:29:00,VALID,916.299,VALID,0,VALID,95.0753,VALID,0.0169808,VALID,19.2057,VALID,167,VALID,0.929501,
2004-03-10, 03:30:00,VALID,916.292,VALID,0,VALID,95.1847,VALID,0.0339617,VALID,19.199,VALID,174,VALID,0.707564,
2004-03-10, 03:31:00,VALID,916.291,VALID,0,VALID,95.3576,VALID,0.0509425,VALID,19.1923,VALID,162,VALID,1.10696,
2004-03-10, 03:32:00,VALID,916.274,VALID,0,VALID,95.3818,VALID,0.0169808,VALID,19.1963,VALID,155,VALID,1.07919,